| time (UTC) | temp C | wind direction | speed KPH | gust KPH | rain 1hr cm | rain 24hr cm | rain mn cm | humidity % | barometer mb |
| 20260505012503 | 10 | 55 | 3.2 | 4.8 | 0.00 | 0.33 | 0.00 | 83 | 1014.2 |
| 20260505011504 | 10 | 29 | 1.6 | 4.8 | 0.00 | 0.33 | 0.00 | 83 | 1014.2 |
| 20260505010504 | 11 | 45 | 1.6 | 4.8 | 0.00 | 0.33 | 0.00 | 84 | 1014.1 |
| 20260505010004 | 11 | 42 | 4.8 | 8.0 | 0.00 | 0.33 | 0.00 | 84 | 1014.1 |
| 20260505005503 | 11 | 65 | 3.2 | 8.0 | 0.00 | 0.33 | 0.00 | 84 | 1014.1 |
| 20260505005004 | 11 | 65 | 3.2 | 4.8 | 0.00 | 0.33 | 0.00 | 84 | 1014.2 |
| 20260505004505 | 11 | 68 | 3.2 | 8.0 | 0.00 | 0.33 | 0.00 | 84 | 1014.2 |
| 20260505003503 | 11 | 69 | 1.6 | 9.7 | 0.00 | 0.33 | 0.00 | 85 | 1014.3 |
| 20260505003003 | 11 | 92 | 0.0 | 0.0 | 0.00 | 0.33 | 0.00 | 85 | 1014.3 |
| 20260505002004 | 11 | 92 | 0.0 | 0.0 | 0.00 | 0.33 | 0.00 | 85 | 1014.3 |
| 20260505001503 | 11 | 92 | 0.0 | 0.0 | 0.00 | 0.33 | 0.00 | 85 | 1014.4 |
| 20260505001004 | 11 | 92 | 0.0 | 0.0 | 0.00 | 0.33 | 0.00 | 85 | 1014.4 |
| 20260505000503 | 11 | 92 | 0.0 | 0.0 | 0.00 | 0.33 | 0.00 | 85 | 1014.5 |
| 20260505000004 | 11 | 92 | 0.0 | 0.0 | 0.00 | 0.33 | 0.00 | 85 | 1014.5 |
| 20260504235503 | 11 | 92 | 0.0 | 0.0 | 0.00 | 0.33 | 0.00 | 85 | 1014.5 |
| 20260504235004 | 11 | 92 | 0.0 | 0.0 | 0.00 | 0.33 | 0.00 | 85 | 1014.6 |
| 20260504234504 | 11 | 92 | 0.0 | 0.0 | 0.00 | 0.33 | 0.00 | 86 | 1014.7 |
| 20260504234004 | 11 | 92 | 0.0 | 0.0 | 0.00 | 0.33 | 0.00 | 85 | 1014.6 |
| 20260504233504 | 11 | 92 | 0.0 | 0.0 | 0.00 | 0.33 | 0.00 | 85 | 1014.6 |
| 20260504233003 | 11 | 92 | 0.0 | 0.0 | 0.00 | 0.33 | 0.00 | 85 | 1014.6 |
| 20260504232504 | 11 | 92 | 0.0 | 0.0 | 0.00 | 0.33 | 0.00 | 85 | 1014.6 |
| 20260504232004 | 11 | 92 | 0.0 | 4.8 | 0.00 | 0.33 | 0.00 | 85 | 1014.7 |
| 20260504231503 | 11 | 92 | 0.0 | 1.6 | 0.00 | 0.33 | 0.00 | 85 | 1014.6 |
| 20260504230503 | 11 | 92 | 1.6 | 3.2 | 0.00 | 0.33 | 0.00 | 84 | 1014.6 |
| 20260504230005 | 11 | 92 | 1.6 | 4.8 | 0.00 | 0.33 | 0.00 | 84 | 1014.6 |
| 20260504225504 | 11 | 92 | 1.6 | 3.2 | 0.00 | 0.33 | 0.33 | 84 | 1014.5 |
| 20260504225003 | 11 | 92 | 1.6 | 4.8 | 0.00 | 0.33 | 0.33 | 84 | 1014.5 |
| 20260504224504 | 11 | 92 | 1.6 | 4.8 | 0.00 | 0.33 | 0.33 | 84 | 1014.4 |
| 20260504224004 | 11 | 92 | 4.8 | 9.7 | 0.00 | 0.33 | 0.33 | 84 | 1014.5 |
| 20260504223503 | 11 | 97 | 3.2 | 9.7 | 0.00 | 0.33 | 0.33 | 84 | 1014.5 |
| 20260504223004 | 11 | 98 | 1.6 | 4.8 | 0.00 | 0.33 | 0.33 | 84 | 1014.6 |
| 20260504222504 | 11 | 98 | 1.6 | 4.8 | 0.00 | 0.33 | 0.33 | 85 | 1014.6 |
| 20260504222004 | 11 | 98 | 1.6 | 4.8 | 0.00 | 0.33 | 0.33 | 84 | 1014.6 |
| 20260504221504 | 11 | 98 | 1.6 | 3.2 | 0.00 | 0.33 | 0.33 | 84 | 1014.5 |
| 20260504221003 | 11 | 98 | 0.0 | 3.2 | 0.00 | 0.33 | 0.33 | 84 | 1014.6 |
| 20260504220004 | 11 | 98 | 0.0 | 1.6 | 0.00 | 0.33 | 0.33 | 84 | 1014.6 |
| 20260504215503 | 11 | 98 | 1.6 | 3.2 | 0.00 | 0.33 | 0.33 | 84 | 1014.6 |
| 20260504215004 | 11 | 98 | 3.2 | 4.8 | 0.00 | 0.33 | 0.33 | 83 | 1014.6 |
| 20260504214503 | 11 | 98 | 1.6 | 4.8 | 0.00 | 0.33 | 0.33 | 83 | 1014.5 |
| 20260504214004 | 11 | 98 | 3.2 | 4.8 | 0.00 | 0.33 | 0.33 | 84 | 1014.5 |
| 20260504213503 | 11 | 98 | 1.6 | 4.8 | 0.00 | 0.33 | 0.33 | 84 | 1014.5 |
| 20260504213004 | 11 | 98 | 0.0 | 0.0 | 0.00 | 0.33 | 0.33 | 84 | 1014.6 |
| 20260504212503 | 11 | 98 | 0.0 | 0.0 | 0.00 | 0.33 | 0.33 | 83 | 1014.6 |
| 20260504212004 | 11 | 98 | 0.0 | 0.0 | 0.00 | 0.33 | 0.33 | 83 | 1014.6 |
| 20260504211503 | 11 | 98 | 0.0 | 0.0 | 0.00 | 0.33 | 0.33 | 83 | 1014.6 |
| 20260504211004 | 11 | 98 | 1.6 | 1.6 | 0.00 | 0.33 | 0.33 | 83 | 1014.6 |
| 20260504210504 | 11 | 98 | 0.0 | 0.0 | 0.00 | 0.33 | 0.33 | 82 | 1014.6 |
| 20260504210005 | 11 | 98 | 0.0 | 0.0 | 0.00 | 0.33 | 0.33 | 82 | 1014.6 |
| 20260504205503 | 11 | 98 | 1.6 | 3.2 | 0.00 | 0.33 | 0.33 | 81 | 1014.6 |
| 20260504204503 | 12 | 98 | 1.6 | 3.2 | 0.00 | 0.33 | 0.33 | 80 | 1014.5 |
| 20260504204004 | 12 | 98 | 1.6 | 3.2 | 0.00 | 0.33 | 0.33 | 80 | 1014.5 |
| 20260504203503 | 12 | 98 | 3.2 | 4.8 | 0.00 | 0.33 | 0.33 | 80 | 1014.5 |
| 20260504203003 | 12 | 98 | 1.6 | 4.8 | 0.00 | 0.33 | 0.33 | 80 | 1014.4 |
| 20260504202504 | 12 | 98 | 1.6 | 4.8 | 0.00 | 0.33 | 0.33 | 79 | 1014.4 |
| 20260504202004 | 12 | 98 | 0.0 | 0.0 | 0.00 | 0.33 | 0.33 | 79 | 1014.4 |
| 20260504200503 | 13 | 98 | 1.6 | 3.2 | 0.00 | 0.33 | 0.33 | 78 | 1014.2 |
| 20260504200003 | 13 | 98 | 1.6 | 3.2 | 0.00 | 0.33 | 0.33 | 77 | 1014.2 |
| 20260504195503 | 13 | 98 | 1.6 | 4.8 | 0.00 | 0.33 | 0.33 | 76 | 1014.0 |
| 20260504195004 | 13 | 98 | 0.0 | 4.8 | 0.00 | 0.33 | 0.33 | 76 | 1014.0 |
| 20260504194504 | 13 | 98 | 1.6 | 4.8 | 0.00 | 0.33 | 0.33 | 76 | 1014.0 |
| 20260504193503 | 14 | 98 | 3.2 | 4.8 | 0.00 | 0.33 | 0.33 | 75 | 1013.9 |
| 20260504193005 | 14 | 99 | 3.2 | 4.8 | 0.00 | 0.33 | 0.33 | 74 | 1013.9 |
| 20260504192504 | 14 | 99 | 3.2 | 11.3 | 0.00 | 0.33 | 0.33 | 73 | 1013.9 |
| 20260504192004 | 14 | 106 | 3.2 | 4.8 | 0.00 | 0.33 | 0.33 | 73 | 1013.8 |
| 20260504191503 | 14 | 111 | 1.6 | 4.8 | 0.00 | 0.33 | 0.33 | 72 | 1013.7 |
| 20260504191004 | 15 | 111 | 3.2 | 9.7 | 0.00 | 0.33 | 0.33 | 72 | 1013.7 |
| 20260504190504 | 15 | 112 | 1.6 | 3.2 | 0.00 | 0.33 | 0.33 | 71 | 1013.7 |
| 20260504190004 | 15 | 112 | 3.2 | 4.8 | 0.00 | 0.33 | 0.33 | 71 | 1013.6 |
| 20260504185503 | 15 | 112 | 3.2 | 4.8 | 0.00 | 0.33 | 0.33 | 70 | 1013.6 |
| 20260504185004 | 15 | 113 | 3.2 | 9.7 | 0.00 | 0.33 | 0.33 | 70 | 1013.6 |
| 20260504184503 | 15 | 114 | 4.8 | 12.9 | 0.00 | 0.33 | 0.33 | 69 | 1013.5 |
| 20260504183504 | 15 | 96 | 4.8 | 12.9 | 0.00 | 0.33 | 0.33 | 69 | 1013.5 |
| 20260504182504 | 16 | 98 | 4.8 | 14.5 | 0.00 | 0.33 | 0.33 | 68 | 1013.3 |
| 20260504182004 | 16 | 103 | 9.7 | 16.1 | 0.00 | 0.33 | 0.33 | 68 | 1013.3 |
| 20260504181004 | 16 | 92 | 8.0 | 19.3 | 0.00 | 0.33 | 0.33 | 67 | 1013.3 |
| 20260504180504 | 16 | 98 | 4.8 | 12.9 | 0.00 | 0.33 | 0.33 | 67 | 1013.2 |
| 20260504180003 | 17 | 83 | 8.0 | 12.9 | 0.00 | 0.33 | 0.33 | 66 | 1013.2 |
| 20260504175504 | 17 | 85 | 6.4 | 11.3 | 0.00 | 0.36 | 0.33 | 65 | 1013.2 |
| 20260504175004 | 17 | 96 | 8.0 | 14.5 | 0.00 | 0.41 | 0.33 | 65 | 1013.2 |
| 20260504174503 | 17 | 109 | 9.7 | 14.5 | 0.00 | 0.43 | 0.33 | 65 | 1013.2 |
| 20260504174004 | 17 | 96 | 6.4 | 12.9 | 0.00 | 0.51 | 0.33 | 65 | 1013.2 |
| 20260504173504 | 17 | 111 | 9.7 | 16.1 | 0.00 | 0.53 | 0.33 | 64 | 1013.2 |
| 20260504173004 | 17 | 106 | 3.2 | 9.7 | 0.00 | 0.53 | 0.33 | 66 | 1013.0 |
| 20260504172503 | 17 | 115 | 8.0 | 12.9 | 0.00 | 0.53 | 0.33 | 66 | 1013.1 |
| 20260504172004 | 17 | 118 | 3.2 | 11.3 | 0.00 | 0.53 | 0.33 | 67 | 1013.1 |
| 20260504171504 | 17 | 107 | 4.8 | 9.7 | 0.00 | 0.53 | 0.33 | 67 | 1013.2 |
| 20260504170504 | 17 | 62 | 3.2 | 4.8 | 0.00 | 0.53 | 0.33 | 66 | 1013.2 |
| 20260504151003 | 17 | 4 | 4.8 | 12.9 | 0.00 | 0.53 | 0.33 | 68 | 1013.5 |
| 20260504150503 | 17 | 89 | 4.8 | 16.1 | 0.00 | 0.53 | 0.33 | 68 | 1013.6 |
| 20260504140503 | 17 | 52 | 8.0 | 19.3 | 0.00 | 0.53 | 0.33 | 71 | 1013.9 |
| 20260504130504 | 15 | 94 | 9.7 | 19.3 | 0.00 | 0.53 | 0.33 | 76 | 1014.1 |
| 20260504110504 | 14 | 87 | 3.2 | 11.3 | 0.00 | 0.53 | 0.33 | 79 | 1014.1 |
| 20260504100503 | 15 | 74 | 8.0 | 19.3 | 0.00 | 0.53 | 0.33 | 79 | 1013.7 |
| 20260504082003 | 12 | 103 | 8.0 | 19.3 | 0.00 | 0.53 | 0.33 | 90 | 1013.3 |
| 20260504081504 | 12 | 111 | 8.0 | 19.3 | 0.00 | 0.53 | 0.33 | 90 | 1013.3 |
| 20260504081004 | 12 | 84 | 12.9 | 24.1 | 0.00 | 0.53 | 0.33 | 90 | 1013.3 |
| 20260504080505 | 12 | 88 | 11.3 | 22.5 | 0.00 | 0.53 | 0.33 | 91 | 1013.3 |
| 20260504050504 | 11 | 104 | 1.6 | 3.2 | 0.00 | 0.20 | 0.00 | 91 | 1011.7 |
| 20260504050004 | 11 | 96 | 3.2 | 4.8 | 0.00 | 0.20 | 0.00 | 91 | 1011.7 |
| 20260504045504 | 11 | 88 | 3.2 | 4.8 | 0.00 | 0.20 | 0.00 | 91 | 1011.6 |
| 20260504045004 | 11 | 86 | 1.6 | 4.8 | 0.00 | 0.20 | 0.00 | 92 | 1011.6 |
| 20260504044504 | 11 | 89 | 0.0 | 0.0 | 0.00 | 0.20 | 0.00 | 92 | 1011.6 |
| 20260504044005 | 11 | 92 | 0.0 | 0.0 | 0.00 | 0.20 | 0.00 | 92 | 1011.5 |
| 20260504043003 | 11 | 89 | 0.0 | 0.0 | 0.00 | 0.20 | 0.00 | 92 | 1011.4 |
| 20260504042503 | 11 | 89 | 0.0 | 0.0 | 0.00 | 0.20 | 0.00 | 92 | 1011.4 |
| 20260504042004 | 11 | 89 | 0.0 | 0.0 | 0.00 | 0.20 | 0.00 | 92 | 1011.5 |
| 20260504041504 | 11 | 89 | 0.0 | 0.0 | 0.00 | 0.20 | 0.00 | 92 | 1011.6 |
| 20260504041004 | 11 | 89 | 0.0 | 0.0 | 0.00 | 0.20 | 0.00 | 92 | 1011.6 |
| 20260504040503 | 11 | 89 | 0.0 | 0.0 | 0.00 | 0.20 | 0.00 | 92 | 1011.5 |
| 20260504040003 | 11 | 89 | 0.0 | 0.0 | 0.00 | 0.20 | 0.00 | 92 | 1011.5 |
| 20260504034503 | 11 | 84 | 0.0 | 0.0 | 0.00 | 0.20 | 0.00 | 92 | 1011.4 |
| 20260504034004 | 11 | 82 | 0.0 | 0.0 | 0.00 | 0.20 | 0.00 | 92 | 1011.4 |
| 20260504033003 | 11 | 79 | 0.0 | 0.0 | 0.00 | 0.20 | 0.00 | 92 | 1011.4 |
| 20260504032003 | 11 | 79 | 0.0 | 0.0 | 0.00 | 0.20 | 0.00 | 92 | 1011.4 |
| 20260504031003 | 11 | 79 | 0.0 | 0.0 | 0.00 | 0.20 | 0.00 | 92 | 1011.4 |
| 20260504030004 | 11 | 79 | 0.0 | 0.0 | 0.00 | 0.20 | 0.00 | 92 | 1011.5 |
| 20260504025503 | 11 | 79 | 0.0 | 0.0 | 0.00 | 0.20 | 0.00 | 92 | 1011.5 |
| 20260504025004 | 11 | 79 | 0.0 | 0.0 | 0.00 | 0.20 | 0.00 | 92 | 1011.4 |
| 20260504024004 | 11 | 79 | 0.0 | 0.0 | 0.00 | 0.20 | 0.00 | 92 | 1011.4 |
| 20260504023504 | 11 | 79 | 0.0 | 0.0 | 0.00 | 0.20 | 0.00 | 92 | 1011.4 |
| 20260504022504 | 11 | 79 | 0.0 | 0.0 | 0.00 | 0.20 | 0.00 | 92 | 1011.4 |
| 20260504022003 | 11 | 79 | 0.0 | 0.0 | 0.00 | 0.20 | 0.00 | 92 | 1011.4 |
| 20260504021503 | 11 | 79 | 0.0 | 0.0 | 0.00 | 0.20 | 0.00 | 92 | 1011.4 |
| 20260504020504 | 11 | 79 | 0.0 | 0.0 | 0.00 | 0.20 | 0.00 | 92 | 1011.4 |
| 20260504020004 | 11 | 79 | 0.0 | 0.0 | 0.00 | 0.20 | 0.00 | 92 | 1011.3 |
| 20260504015504 | 11 | 79 | 0.0 | 0.0 | 0.00 | 0.20 | 0.00 | 92 | 1011.3 |
| 20260504015003 | 11 | 79 | 0.0 | 0.0 | 0.00 | 0.20 | 0.00 | 92 | 1011.3 |
| 20260504014504 | 11 | 79 | 0.0 | 0.0 | 0.00 | 0.20 | 0.00 | 92 | 1011.3 |
| 20260504013504 | 11 | 79 | 0.0 | 0.0 | 0.00 | 0.20 | 0.00 | 92 | 1011.3 |
| 20260504013003 | 11 | 79 | 0.0 | 0.0 | 0.00 | 0.20 | 0.00 | 92 | 1011.3 |